Hourly Weather Juliasdale

Today, 30 November, Monday

Time Temperature Precipitation Wind Pressure Humidity
00:00 +19°C° 0.4 mm 1 mps 626 mmHg 88%
01:00 +19°C° 0.4 mm 1 mps 626 mmHg 88%
02:00 +19°C° 0.4 mm 1 mps 626 mmHg 88%
03:00 +18°C° 0.3 mm 1 mps 626 mmHg 88%
04:00 +16°C° 0.3 mm 0 mps 626 mmHg 89%
05:00 +16°C° 0.3 mm 0 mps 626 mmHg 89%
06:00 +17°C° 0.6 mm 0 mps 627 mmHg 86%
07:00 +20°C° 0.6 mm 1 mps 628 mmHg 84%
08:00 +21°C° 0.6 mm 1 mps 628 mmHg 81%
09:00 +21°C° 1.6 mm 1 mps 628 mmHg 82%
10:00 +21°C° 1.6 mm 1 mps 629 mmHg 82%
11:00 +22°C° 1.6 mm 1 mps 629 mmHg 83%
12:00 +22°C° 1.4 mm 1 mps 628 mmHg 82%
13:00 +22°C° 1.4 mm 1 mps 628 mmHg 82%
14:00 +20°C° 1.4 mm 0 mps 627 mmHg 81%
15:00 +19°C° 0.6 mm 0 mps 627 mmHg 83%
16:00 +19°C° 0.6 mm 0 mps 626 mmHg 85%
17:00 +19°C° 0.6 mm 0 mps 626 mmHg 87%
18:00 +18°C° 0 mm 0 mps 626 mmHg 89%
19:00 +17°C° 0 mm 0 mps 626 mmHg 91%
20:00 +16°C° 0 mm 0 mps 626 mmHg 93%
21:00 +16°C° 0 mm 0 mps 626 mmHg 91%
22:00 +16°C° 0 mm 0 mps 626 mmHg 90%
23:00 +16°C° 0 mm 0 mps 627 mmHg 88%

Tomorrow, 1 December, Tuesday

Time Temperature Precipitation Wind Pressure Humidity
00:00 +16°C° 0 mm 0 mps 626 mmHg 89%
01:00 +16°C° 0 mm 0 mps 626 mmHg 90%
02:00 +16°C° 0 mm 0 mps 626 mmHg 90%
03:00 +16°C° 0.8 mm 0 mps 626 mmHg 91%
04:00 +16°C° 0.8 mm 0 mps 626 mmHg 92%
05:00 +16°C° 0.8 mm 0 mps 626 mmHg 92%
06:00 +16°C° 0.4 mm 0 mps 626 mmHg 92%
07:00 +18°C° 0.4 mm 1 mps 626 mmHg 91%
08:00 +19°C° 0.4 mm 1 mps 627 mmHg 91%
09:00 +20°C° 0.4 mm 1 mps 627 mmHg 85%
10:00 +20°C° 0.4 mm 2 mps 627 mmHg 80%
11:00 +23°C° 0.4 mm 2 mps 627 mmHg 74%
12:00 +24°C° 1 mm 2 mps 627 mmHg 70%
13:00 +25°C° 1 mm 2 mps 626 mmHg 66%
14:00 +26°C° 1 mm 2 mps 626 mmHg 62%
15:00 +25°C° 1.2 mm 2 mps 626 mmHg 67%
16:00 +24°C° 1.2 mm 1 mps 625 mmHg 71%
17:00 +23°C° 1.2 mm 1 mps 625 mmHg 75%
18:00 +22°C° 0.8 mm 1 mps 625 mmHg 79%
19:00 +21°C° 0.8 mm 1 mps 625 mmHg 82%
20:00 +20°C° 0.8 mm 1 mps 625 mmHg 86%
21:00 +20°C° 1.4 mm 1 mps 625 mmHg 87%
22:00 +19°C° 1.4 mm 1 mps 625 mmHg 89%
23:00 +17°C° 1.4 mm 0 mps 625 mmHg 90%

Day after tomorrow, 2 December, Wednesday

Time Temperature Precipitation Wind Pressure Humidity
00:00 +17°C° 0.4 mm 0 mps 625 mmHg 89%
01:00 +17°C° 0.4 mm 0 mps 624 mmHg 89%
02:00 +17°C° 0.4 mm 0 mps 624 mmHg 88%
03:00 +17°C° 0.6 mm 0 mps 624 mmHg 88%
04:00 +17°C° 0.6 mm 0 mps 624 mmHg 88%
05:00 +17°C° 0.6 mm 0 mps 625 mmHg 88%
06:00 +18°C° 1.1 mm 0 mps 626 mmHg 86%
07:00 +19°C° 1.1 mm 0 mps 626 mmHg 84%
08:00 +20°C° 1.1 mm 0 mps 627 mmHg 82%
09:00 +21°C° 1.1 mm 1 mps 627 mmHg 83%
10:00 +21°C° 1.1 mm 1 mps 627 mmHg 84%
11:00 +21°C° 1.1 mm 1 mps 626 mmHg 85%
12:00 +21°C° 0.8 mm 1 mps 626 mmHg 84%
13:00 +21°C° 0.8 mm 1 mps 626 mmHg 83%
14:00 +21°C° 0.8 mm 2 mps 625 mmHg 82%
15:00 +21°C° 0.5 mm 1 mps 625 mmHg 84%
16:00 +21°C° 0.5 mm 1 mps 625 mmHg 87%
17:00 +20°C° 0.5 mm 1 mps 625 mmHg 89%
18:00 +20°C° 0.4 mm 1 mps 625 mmHg 91%
19:00 +19°C° 0.4 mm 1 mps 626 mmHg 93%
20:00 +18°C° 0.4 mm 2 mps 626 mmHg 95%
21:00 +19°C° 1.8 mm 1 mps 626 mmHg 96%
22:00 +19°C° 1.8 mm 1 mps 627 mmHg 97%
23:00 +19°C° 1.8 mm 1 mps 627 mmHg 97%

3 December, Thursday

Time Temperature Precipitation Wind Pressure Humidity
00:00 +18°C° 9.7 mm 1 mps 627 mmHg 97%
01:00 +18°C° 9.7 mm 1 mps 626 mmHg 97%
02:00 +18°C° 9.7 mm 1 mps 626 mmHg 97%
03:00 +18°C° 8 mm 1 mps 626 mmHg 97%
04:00 +16°C° 8 mm 1 mps 627 mmHg 96%
05:00 +16°C° 8 mm 2 mps 627 mmHg 96%
06:00 +16°C° 2.4 mm 1 mps 627 mmHg 96%
07:00 +16°C° 2.4 mm 1 mps 628 mmHg 96%
08:00 +16°C° 2.4 mm 1 mps 628 mmHg 95%
09:00 +18°C° 1 mm 1 mps 628 mmHg 94%
10:00 +18°C° 1 mm 1 mps 628 mmHg 93%
11:00 +19°C° 1 mm 1 mps 628 mmHg 92%
12:00 +20°C° 0.3 mm 1 mps 628 mmHg 89%
13:00 +20°C° 0.3 mm 1 mps 628 mmHg 86%
14:00 +21°C° 0.3 mm 1 mps 628 mmHg 84%
15:00 +21°C° 0.6 mm 1 mps 627 mmHg 87%
16:00 +20°C° 0.6 mm 1 mps 627 mmHg 90%
17:00 +20°C° 0.6 mm 1 mps 627 mmHg 93%
18:00 +19°C° 0.1 mm 1 mps 627 mmHg 94%
19:00 +19°C° 0.1 mm 1 mps 627 mmHg 95%
20:00 +18°C° 0.1 mm 1 mps 627 mmHg 96%
21:00 +18°C° 0 mm 1 mps 627 mmHg 96%
22:00 +18°C° 0 mm 1 mps 628 mmHg 97%
23:00 +16°C° 0 mm 1 mps 628 mmHg 97%

4 December, Friday

Time Temperature Precipitation Wind Pressure Humidity
00:00 +16°C° 0 mm 1 mps 627 mmHg 96%
01:00 +16°C° 0 mm 1 mps 627 mmHg 96%
02:00 +16°C° 0 mm 1 mps 627 mmHg 96%
03:00 +16°C° 0 mm 1 mps 627 mmHg 95%
04:00 +16°C° 0 mm 1 mps 627 mmHg 95%
05:00 +16°C° 0 mm 1 mps 627 mmHg 94%
06:00 +18°C° 0 mm 1 mps 628 mmHg 91%
07:00 +17°C° 0 mm 0 mps 628 mmHg 89%
08:00 +17°C° 0 mm 0 mps 629 mmHg 86%
09:00 +18°C° 0.2 mm 0 mps 629 mmHg 85%
10:00 +20°C° 0.2 mm 1 mps 629 mmHg 83%
11:00 +21°C° 0.2 mm 1 mps 629 mmHg 82%
12:00 +22°C° 0.8 mm 1 mps 629 mmHg 79%
13:00 +23°C° 0.8 mm 1 mps 628 mmHg 76%
14:00 +24°C° 0.8 mm 1 mps 628 mmHg 74%
15:00 +23°C° 1.6 mm 1 mps 628 mmHg 78%
16:00 +22°C° 1.6 mm 1 mps 627 mmHg 83%
17:00 +21°C° 1.6 mm 1 mps 627 mmHg 87%
18:00 +20°C° 1.3 mm 1 mps 627 mmHg 89%
19:00 +20°C° 1.3 mm 1 mps 627 mmHg 92%
20:00 +19°C° 1.3 mm 1 mps 627 mmHg 94%
21:00 +19°C° 1 mm 1 mps 628 mmHg 94%
22:00 +19°C° 1 mm 1 mps 628 mmHg 94%
23:00 +19°C° 1 mm 1 mps 628 mmHg 94%

5 December, Saturday

Time Temperature Precipitation Wind Pressure Humidity
00:00 +19°C° 0.8 mm 1 mps 628 mmHg 95%
01:00 +18°C° 0.8 mm 1 mps 628 mmHg 95%
02:00 +18°C° 0.8 mm 1 mps 627 mmHg 95%
03:00 +18°C° 0.9 mm 1 mps 627 mmHg 96%
04:00 +18°C° 0.9 mm 1 mps 627 mmHg 96%
05:00 +18°C° 0.9 mm 1 mps 628 mmHg 96%
06:00 +18°C° 0.7 mm 1 mps 628 mmHg 95%
07:00 +18°C° 0.7 mm 1 mps 628 mmHg 94%
08:00 +19°C° 0.7 mm 1 mps 628 mmHg 94%
09:00 +19°C° 0.5 mm 1 mps 628 mmHg 90%
10:00 +20°C° 0.5 mm 1 mps 628 mmHg 86%
11:00 +21°C° 0.5 mm 1 mps 628 mmHg 83%
12:00 +22°C° 1.1 mm 1 mps 628 mmHg 81%
13:00 +23°C° 1.1 mm 1 mps 628 mmHg 79%
14:00 +23°C° 1.1 mm 1 mps 628 mmHg 77%
15:00 +22°C° 2.1 mm 1 mps 628 mmHg 82%
16:00 +21°C° 2.1 mm 1 mps 627 mmHg 86%
17:00 +20°C° 2.1 mm 1 mps 626 mmHg 91%
18:00 +19°C° 1 mm 1 mps 627 mmHg 93%
19:00 +19°C° 1 mm 1 mps 627 mmHg 94%
20:00 +18°C° 1 mm 1 mps 627 mmHg 96%
21:00 +18°C° 0 mm 1 mps 627 mmHg 95%
22:00 +18°C° 0 mm 1 mps 627 mmHg 95%
23:00 +18°C° 0 mm 1 mps 627 mmHg 94%
Show more